User: anonymous   Login
Location: Unspecified
(0.0000°N, 0.0000°E)
Time: 19:32:56
(UTC+00:00)
Language:

ZHUHAI-1 OVS-02 - Orbit

View from above orbital plane
View from above orbital plane
View from above satellite
View from above satellite

Ground track
Ground track

The orbit data is extracted from the following two-line orbital elements,

1 43440U 18040B   18351.50894080  .00000799  00000-0  42431-4 0  9993
2 43440  97.3838  69.0338 0010552 200.1574 254.3179 15.18095171 35700
Epoch (UTC): 17 December 2018 12:12:52
Eccentricity: 0.0010552
inclination: 97.3838°
perigee height: 504 km
apogee height: 519 km
right ascension of ascending node: 69.0338°
argument of perigee: 200.1574°
revolutions per day: 15.18095171
mean anomaly at epoch: 254.3179°
orbit number at epoch: 3570

The dashed part of the orbit path shows where the satellite is in the earth's shadow,  

DLR